User: anonymous   Login
Location: Unspecified
(0.0000°N, 0.0000°E)
Time: 20:05:22
(UTC+00:00)
Language:

Courier 1B Rocket - Orbit

View from above orbital plane
View from above orbital plane
View from above satellite
View from above satellite

Ground track
Ground track

The orbit data is extracted from the following two-line orbital elements,

1    59U 60013B   19258.29625239 +.00000106 +00000-0 +24456-4 0  9999
2    59 028.2469 196.7549 0189314 128.3245 233.4480 13.52971125909175
Epoch (UTC): 15 September 2019 07:06:36
Eccentricity: 0.0189314
inclination: 28.2469°
perigee height: 920 km
apogee height: 1202 km
right ascension of ascending node: 196.7549°
argument of perigee: 128.3245°
revolutions per day: 13.52971125
mean anomaly at epoch: 233.4480°
orbit number at epoch: 90917

The dashed part of the orbit path shows where the satellite is in the earth's shadow,  

DLR